| time (UTC) | temp C | wind direction | speed KPH | gust KPH | rain 1hr cm | rain 24hr cm | rain mn cm | humidity % | barometer mb |
| 20260902031553 | 17 | 170 | 3.2 | 9.7 | 0.00 | 0.00 | 0.00 | 76 | 1008.4 |
| 20260902030053 | 17 | 163 | 1.6 | 8.0 | 0.00 | 0.00 | 0.00 | 75 | 1008.4 |
| 20260902024553 | 17 | 165 | 1.6 | 8.0 | 0.00 | 0.00 | 0.00 | 75 | 1008.4 |
| 20260902023152 | 17 | 153 | 0.0 | 6.4 | 0.00 | 0.00 | 0.00 | 75 | 1008.3 |
| 20260902021557 | 17 | 147 | 3.2 | 12.9 | 0.00 | 0.00 | 0.00 | 75 | 1008.4 |
| 20260902020051 | 17 | 153 | 0.0 | 8.0 | 0.00 | 0.00 | 0.00 | 74 | 1008.4 |
| 20260902014550 | 17 | 175 | 1.6 | 11.3 | 0.00 | 0.00 | 0.00 | 73 | 1008.4 |
| 20260902013050 | 17 | 163 | 3.2 | 12.9 | 0.00 | 0.00 | 0.00 | 75 | 1008.3 |
| 20260902011549 | 17 | 177 | 1.6 | 11.3 | 0.00 | 0.00 | 0.00 | 77 | 1008.4 |
| 20260902010051 | 17 | 178 | 3.2 | 9.7 | 0.00 | 0.00 | 0.00 | 76 | 1008.4 |
| 20260902004548 | 17 | 165 | 1.6 | 8.0 | 0.00 | 0.00 | 0.00 | 76 | 1008.4 |
| 20260902003047 | 17 | 171 | 0.0 | 3.2 | 0.00 | 0.00 | 0.00 | 77 | 1008.3 |
| 20260902001547 | 17 | 180 | 1.6 | 9.7 | 0.00 | 0.00 | 0.00 | 75 | 1008.2 |
| 20260902000052 | 17 | 192 | 3.2 | 8.0 | 0.00 | 0.00 | 0.00 | 77 | 1008.2 |
| 20260901234553 | 18 | 175 | 4.8 | 14.5 | 0.00 | 0.00 | 0.00 | 75 | 1008.3 |
| 20260901233045 | 18 | 162 | 3.2 | 11.3 | 0.00 | 0.00 | 0.00 | 76 | 1008.2 |
| 20260901231544 | 18 | 182 | 4.8 | 11.3 | 0.00 | 0.00 | 0.00 | 76 | 1008.2 |
| 20260901230046 | 18 | 182 | 4.8 | 16.1 | 0.00 | 0.00 | 0.00 | 74 | 1008.1 |
| 20260901224542 | 19 | 186 | 9.7 | 19.3 | 0.00 | 0.00 | 0.00 | 72 | 1008.2 |
| 20260901223039 | 19 | 121 | 3.2 | 16.1 | 0.00 | 0.00 | 0.00 | 74 | 1008.2 |
| 20260901221603 | 18 | 127 | 9.7 | 20.9 | 0.00 | 0.00 | 0.00 | 75 | 1008.2 |
| 20260901220039 | 18 | 155 | 4.8 | 14.5 | 0.00 | 0.00 | 0.00 | 74 | 1008.4 |
| 20260901214538 | 18 | 177 | 4.8 | 14.5 | 0.00 | 0.00 | 0.00 | 77 | 1008.6 |
| 20260901213058 | 18 | 200 | 4.8 | 25.7 | 0.00 | 0.00 | 0.00 | 78 | 1008.7 |
| 20260901211544 | 17 | 168 | 4.8 | 12.9 | 0.00 | 0.00 | 0.00 | 79 | 1008.7 |
| 20260901210039 | 17 | 192 | 6.4 | 17.7 | 0.00 | 0.00 | 0.00 | 78 | 1008.9 |
| 20260901204536 | 18 | 177 | 3.2 | 14.5 | 0.00 | 0.00 | 0.00 | 78 | 1008.9 |
| 20260901203042 | 17 | 229 | 4.8 | 12.9 | 0.00 | 0.00 | 0.00 | 79 | 1008.9 |
| 20260901201533 | 17 | 190 | 6.4 | 16.1 | 0.00 | 0.00 | 0.00 | 78 | 1008.9 |
| 20260901200041 | 18 | 128 | 4.8 | 12.9 | 0.00 | 0.00 | 0.00 | 76 | 1008.7 |
| 20260901194532 | 18 | 156 | 3.2 | 16.1 | 0.00 | 0.00 | 0.00 | 73 | 1008.7 |
| 20260901193035 | 18 | 186 | 8.0 | 22.5 | 0.00 | 0.00 | 0.00 | 77 | 1008.8 |
| 20260901191530 | 19 | 192 | 3.2 | 22.5 | 0.00 | 0.00 | 0.00 | 75 | 1008.7 |
| 20260901190029 | 18 | 206 | 3.2 | 12.9 | 0.00 | 0.00 | 0.00 | 75 | 1008.7 |
| 20260901184533 | 18 | 164 | 1.6 | 12.9 | 0.00 | 0.00 | 0.00 | 75 | 1008.9 |
| 20260901183025 | 17 | 234 | 1.6 | 14.5 | 0.00 | 0.00 | 0.00 | 79 | 1009.0 |
| 20260901181524 | 17 | 188 | 3.2 | 16.1 | 0.00 | 0.00 | 0.00 | 76 | 1009.0 |
| 20260901180023 | 17 | 153 | 4.8 | 17.7 | 0.00 | 0.00 | 0.00 | 79 | 1009.0 |
| 20260901174520 | 17 | 198 | 4.8 | 14.5 | 0.00 | 0.00 | 0.00 | 77 | 1009.0 |
| 20260901173017 | 16 | 289 | 1.6 | 11.3 | 0.00 | 0.00 | 0.00 | 81 | 1008.9 |
| 20260901171518 | 16 | 167 | 1.6 | 12.9 | 0.00 | 0.00 | 0.00 | 83 | 1009.0 |
| 20260901170010 | 16 | 194 | 3.2 | 11.3 | 0.00 | 0.00 | 0.00 | 83 | 1009.0 |
| 20260901164510 | 15 | 155 | 3.2 | 8.0 | 0.00 | 0.00 | 0.00 | 84 | 1008.9 |
| 20260901163003 | 15 | 192 | 4.8 | 19.3 | 0.00 | 0.00 | 0.00 | 85 | 1008.9 |
| 20260901161600 | 15 | 177 | 6.4 | 14.5 | 0.00 | 0.00 | 0.00 | 85 | 1009.0 |
| 20260901161501 | 15 | 180 | 4.8 | 16.1 | 0.00 | 0.00 | 0.00 | 86 | 1009.0 |
| 20260901160105 | 15 | 192 | 4.8 | 17.7 | 0.00 | 0.00 | 0.00 | 87 | 1008.9 |
| 20260901154557 | 14 | 242 | 1.6 | 9.7 | 0.00 | 0.00 | 0.00 | 91 | 1009.0 |
| 20260901153103 | 13 | 161 | 0.0 | 0.0 | 0.00 | 0.00 | 0.00 | 93 | 1009.0 |
| 20260901151550 | 13 | 161 | 0.0 | 1.6 | 0.00 | 0.00 | 0.00 | 93 | 1008.9 |
| 20260901150048 | 13 | 161 | 0.0 | 4.8 | 0.00 | 0.00 | 0.00 | 94 | 1008.8 |
| 20260901144645 | 13 | 198 | 0.0 | 0.0 | 0.00 | 0.00 | 0.00 | 94 | 1008.8 |
| 20260901143044 | 13 | 198 | 0.0 | 3.2 | 0.00 | 0.00 | 0.00 | 94 | 1008.7 |
| 20260901141552 | 12 | 198 | 0.0 | 6.4 | 0.00 | 0.00 | 0.00 | 94 | 1008.7 |
| 20260901140040 | 12 | 239 | 0.0 | 3.2 | 0.00 | 0.00 | 0.00 | 94 | 1008.7 |
| 20260901134535 | 12 | 240 | 0.0 | 3.2 | 0.00 | 0.00 | 0.00 | 94 | 1008.3 |
| 20260901133039 | 12 | 242 | 0.0 | 0.0 | 0.00 | 0.00 | 0.00 | 94 | 1008.3 |
| 20260901131534 | 12 | 242 | 0.0 | 3.2 | 0.00 | 0.00 | 0.00 | 94 | 1008.1 |
| 20260901130032 | 11 | 294 | 0.0 | 1.6 | 0.00 | 0.00 | 0.00 | 93 | 1008.2 |
| 20260901124534 | 11 | 294 | 0.0 | 0.0 | 0.00 | 0.00 | 0.00 | 93 | 1008.2 |
| 20260901123031 | 11 | 294 | 0.0 | 0.0 | 0.00 | 0.00 | 0.00 | 93 | 1008.2 |
| 20260901121535 | 12 | 294 | 0.0 | 0.0 | 0.00 | 0.00 | 0.00 | 93 | 1008.2 |
| 20260901120041 | 12 | 294 | 0.0 | 0.0 | 0.00 | 0.00 | 0.00 | 93 | 1008.2 |
| 20260901114528 | 12 | 294 | 0.0 | 0.0 | 0.00 | 0.00 | 0.00 | 94 | 1008.3 |
| 20260901113029 | 12 | 294 | 0.0 | 0.0 | 0.00 | 0.00 | 0.00 | 93 | 1008.4 |
| 20260901111527 | 12 | 294 | 0.0 | 0.0 | 0.00 | 0.00 | 0.00 | 93 | 1008.3 |
| 20260901110033 | 12 | 294 | 0.0 | 0.0 | 0.00 | 0.00 | 0.00 | 93 | 1008.5 |
| 20260901104531 | 12 | 294 | 0.0 | 0.0 | 0.00 | 0.00 | 0.00 | 93 | 1008.6 |
| 20260901103025 | 12 | 294 | 0.0 | 0.0 | 0.00 | 0.00 | 0.00 | 93 | 1008.5 |
| 20260901101525 | 12 | 294 | 0.0 | 0.0 | 0.00 | 0.00 | 0.00 | 93 | 1008.5 |
| 20260901100023 | 12 | 294 | 0.0 | 0.0 | 0.00 | 0.00 | 0.00 | 93 | 1008.5 |
| 20260901094522 | 12 | 294 | 0.0 | 0.0 | 0.00 | 0.00 | 0.00 | 92 | 1008.5 |
| 20260901093021 | 12 | 294 | 0.0 | 0.0 | 0.00 | 0.00 | 0.00 | 93 | 1008.4 |
| 20260901091523 | 12 | 294 | 0.0 | 0.0 | 0.00 | 0.00 | 0.00 | 92 | 1008.3 |
| 20260901090020 | 12 | 294 | 0.0 | 0.0 | 0.00 | 0.00 | 0.00 | 92 | 1008.4 |
| 20260901084519 | 12 | 294 | 0.0 | 0.0 | 0.00 | 0.00 | 0.00 | 92 | 1008.4 |
| 20260901083023 | 12 | 294 | 0.0 | 0.0 | 0.00 | 0.00 | 0.00 | 92 | 1008.5 |
| 20260901081518 | 12 | 294 | 0.0 | 0.0 | 0.00 | 0.00 | 0.00 | 92 | 1008.4 |
| 20260901080016 | 13 | 294 | 0.0 | 0.0 | 0.00 | 0.00 | 0.00 | 92 | 1008.2 |
| 20260901074514 | 13 | 294 | 0.0 | 0.0 | 0.00 | 0.00 | 0.00 | 92 | 1008.1 |
| 20260901073011 | 13 | 294 | 0.0 | 0.0 | 0.00 | 0.00 | 0.00 | 92 | 1008.2 |
| 20260901071510 | 13 | 294 | 0.0 | 0.0 | 0.00 | 0.00 | 0.00 | 92 | 1008.3 |
| 20260901070017 | 13 | 294 | 0.0 | 0.0 | 0.00 | 0.00 | 0.00 | 92 | 1008.3 |
| 20260901064507 | 13 | 294 | 0.0 | 0.0 | 0.00 | 0.00 | 0.00 | 92 | 1008.5 |
| 20260901063006 | 13 | 294 | 0.0 | 0.0 | 0.00 | 0.00 | 0.00 | 91 | 1008.5 |
| 20260901061508 | 13 | 294 | 0.0 | 0.0 | 0.00 | 0.00 | 0.00 | 91 | 1008.5 |
| 20260901060006 | 13 | 294 | 0.0 | 0.0 | 0.00 | 0.00 | 0.00 | 90 | 1008.5 |
| 20260901054506 | 13 | 294 | 0.0 | 0.0 | 0.00 | 0.00 | 0.00 | 90 | 1008.5 |
| 20260901053005 | 14 | 294 | 0.0 | 0.0 | 0.00 | 0.00 | 0.00 | 89 | 1008.5 |
| 20260901051505 | 14 | 294 | 0.0 | 0.0 | 0.00 | 0.00 | 0.00 | 88 | 1008.4 |
| 20260901050004 | 14 | 294 | 0.0 | 0.0 | 0.00 | 0.00 | 0.00 | 87 | 1008.4 |
| 20260901044505 | 15 | 294 | 0.0 | 0.0 | 0.00 | 0.00 | 0.00 | 86 | 1008.4 |
| 20260901043003 | 15 | 294 | 0.0 | 0.0 | 0.00 | 0.00 | 0.00 | 86 | 1008.4 |
| 20260901041502 | 15 | 294 | 0.0 | 0.0 | 0.00 | 0.00 | 0.00 | 84 | 1008.4 |
| 20260901040002 | 16 | 294 | 0.0 | 0.0 | 0.00 | 0.00 | 0.00 | 83 | 1008.3 |
| 20260901034501 | 16 | 294 | 0.0 | 0.0 | 0.00 | 0.00 | 0.00 | 81 | 1008.3 |
| 20260901033002 | 16 | 294 | 0.0 | 0.0 | 0.00 | 0.00 | 0.00 | 79 | 1008.2 |